CW3873 Weather Reports


time (UTC)temp
C
wind
direction
speed
KPH
gust
KPH
rain 1hr
cm
rain 24hr
cm
rain mn
cm
humidity
%
barometer
mb
20211017164304 13 75 4.8 8.0 0.00 0.00 0.00 26 1026.9
20211017163804 12 54 3.2 9.7 0.00 0.00 0.00 27 1027.0
20211017163304 12 52 3.2 9.7 0.00 0.00 0.00 27 1027.0
20211017162804 12 54 3.2 4.8 0.00 0.00 0.00 27 1027.1
20211017162306 12 21 3.2 8.0 0.00 0.00 0.00 28 1027.1
20211017161804 12 63 6.4 11.3 0.00 0.00 0.00 28 1027.3
20211017161303 12 34 3.2 8.0 0.00 0.00 0.00 28 1027.3
20211017160804 11 33 1.6 8.0 0.00 0.00 0.00 28 1027.3
20211017160304 11 48 4.8 9.7 0.00 0.00 0.00 28 1027.3
20211017155804 11 45 4.8 9.7 0.00 0.00 0.00 27 1027.3
20211017155306 11 42 6.4 14.5 0.00 0.00 0.00 27 1027.3
20211017154804 11 56 4.8 9.7 0.00 0.00 0.00 27 1027.2
20211017154304 11 353 1.6 8.0 0.00 0.00 0.00 29 1027.3
20211017153804 11 1 3.2 12.9 0.00 0.00 0.00 29 1027.3
20211017153304 10 354 6.4 14.5 0.00 0.00 0.00 29 1027.3
20211017152804 10 11 9.7 14.5 0.00 0.00 0.00 29 1027.3
20211017152306 10 25 4.8 9.7 0.00 0.00 0.00 29 1027.3
20211017151804 10 25 4.8 12.9 0.00 0.00 0.00 29 1027.4
20211017151304 10 43 6.4 16.1 0.00 0.00 0.00 29 1027.5
20211017150804 10 20 8.0 19.3 0.00 0.00 0.00 29 1027.5
20211017150304 10 36 4.8 16.1 0.00 0.00 0.00 30 1027.5
20211017145804 9 7 3.2 19.3 0.00 0.00 0.00 31 1027.2
20211017145306 9 11 8.0 19.3 0.00 0.00 0.00 31 1027.1
20211017144804 9 14 8.0 16.1 0.00 0.00 0.00 31 1027.1
20211017144304 8 355 6.4 19.3 0.00 0.00 0.00 32 1027.0
20211017143804 8 13 6.4 16.1 0.00 0.00 0.00 32 1027.0
20211017143304 8 9 4.8 16.1 0.00 0.00 0.00 32 1027.0
20211017142804 8 10 9.7 16.1 0.00 0.00 0.00 32 1027.0
20211017142305 7 334 4.8 16.1 0.00 0.00 0.00 33 1026.9
20211017141804 7 13 4.8 9.7 0.00 0.00 0.00 33 1026.9
20211017141304 7 15 1.6 12.9 0.00 0.00 0.00 33 1026.9
20211017140804 7 11 3.2 9.7 0.00 0.00 0.00 34 1026.9
20211017140304 7 0 0.0 4.8 0.00 0.00 0.00 34 1026.9
20211017135803 7 29 1.6 4.8 0.00 0.00 0.00 34 1026.9
20211017135305 7 9 3.2 11.3 0.00 0.00 0.00 34 1026.9
20211017134803 7 30 1.6 3.2 0.00 0.00 0.00 33 1026.9
20211017134304 7 31 1.6 4.8 0.00 0.00 0.00 33 1026.8
20211017133804 7 1 3.2 12.9 0.00 0.00 0.00 33 1026.8
20211017133304 7 33 3.2 8.0 0.00 0.00 0.00 34 1026.8
20211017132804 7 1 0.0 9.7 0.00 0.00 0.00 34 1026.8
20211017132305 7 14 1.6 12.9 0.00 0.00 0.00 34 1026.7
20211017131804 7 348 3.2 12.9 0.00 0.00 0.00 34 1026.7
20211017131304 7 14 3.2 14.5 0.00 0.00 0.00 34 1026.8
20211017130804 7 355 1.6 11.3 0.00 0.00 0.00 34 1026.7
20211017130304 7 354 3.2 9.7 0.00 0.00 0.00 34 1026.7
20211017125804 7 355 3.2 9.7 0.00 0.00 0.00 34 1026.6
20211017125306 7 4 3.2 12.9 0.00 0.00 0.00 34 1026.7
20211017124804 6 4 4.8 16.1 0.00 0.00 0.00 35 1026.7
20211017124304 6 18 6.4 12.9 0.00 0.00 0.00 35 1026.7
20211017123804 6 349 4.8 19.3 0.00 0.00 0.00 36 1026.7
20211017123304 6 11 1.6 4.8 0.00 0.00 0.00 36 1026.8
20211017122804 6 34 1.6 9.7 0.00 0.00 0.00 36 1026.8
20211017122306 6 22 3.2 9.7 0.00 0.00 0.00 37 1026.8
20211017121804 6 2 4.8 12.9 0.00 0.00 0.00 37 1026.8
20211017121304 6 6 3.2 11.3 0.00 0.00 0.00 37 1026.9
20211017120804 5 11 0.0 14.5 0.00 0.00 0.00 37 1026.9
20211017120304 5 359 4.8 14.5 0.00 0.00 0.00 38 1027.1
20211017115803 5 12 3.2 9.7 0.00 0.00 0.00 38 1026.8
20211017115306 5 3 1.6 9.7 0.00 0.00 0.00 37 1026.8
20211017114804 5 24 0.0 3.2 0.00 0.00 0.00 37 1026.8
20211017114304 5 26 0.0 0.0 0.00 0.00 0.00 37 1026.8
20211017113804 5 26 1.6 4.8 0.00 0.00 0.00 37 1026.7
20211017113304 5 0 0.0 4.8 0.00 0.00 0.00 37 1026.7
20211017112804 5 44 0.0 1.6 0.00 0.00 0.00 37 1026.7
20211017112305 5 44 0.0 1.6 0.00 0.00 0.00 38 1026.7
20211017111804 5 44 0.0 3.2 0.00 0.00 0.00 38 1026.7
20211017111304 5 55 0.0 1.6 0.00 0.00 0.00 38 1026.7
20211017110804 5 55 0.0 1.6 0.00 0.00 0.00 39 1026.7
20211017110305 5 56 0.0 3.2 0.00 0.00 0.00 38 1026.9
20211017105804 5 52 0.0 4.8 0.00 0.00 0.00 38 1026.9
20211017105306 5 40 0.0 4.8 0.00 0.00 0.00 39 1026.9
20211017104804 5 63 3.2 8.0 0.00 0.00 0.00 39 1026.9
20211017104304 5 3 1.6 8.0 0.00 0.00 0.00 39 1026.9
20211017103804 5 22 3.2 4.8 0.00 0.00 0.00 39 1026.9
20211017103304 5 22 1.6 4.8 0.00 0.00 0.00 38 1027.0
20211017102804 5 122 0.0 1.6 0.00 0.00 0.00 39 1027.0
20211017102306 5 122 0.0 0.0 0.00 0.00 0.00 38 1027.0
20211017101804 5 122 0.0 0.0 0.00 0.00 0.00 38 1027.0
20211017101304 5 122 0.0 0.0 0.00 0.00 0.00 38 1027.0
20211017100804 5 122 0.0 0.0 0.00 0.00 0.00 38 1027.0
20211017100303 5 122 0.0 0.0 0.00 0.00 0.00 37 1027.1
20211017095804 5 122 0.0 0.0 0.00 0.00 0.00 37 1027.1
20211017095306 5 122 0.0 0.0 0.00 0.00 0.00 36 1027.2
20211017094804 5 122 0.0 0.0 0.00 0.00 0.00 36 1027.2
20211017094304 5 122 0.0 0.0 0.00 0.00 0.00 36 1027.2
20211017093805 6 122 0.0 0.0 0.00 0.00 0.00 36 1027.1
20211017093304 6 122 0.0 3.2 0.00 0.00 0.00 36 1027.2
20211017092804 6 122 1.6 3.2 0.00 0.00 0.00 36 1027.2
20211017092306 6 123 0.0 1.6 0.00 0.00 0.00 36 1027.3
20211017091804 6 120 0.0 1.6 0.00 0.00 0.00 36 1027.3
20211017091304 6 120 0.0 0.0 0.00 0.00 0.00 36 1027.3
20211017090804 6 120 0.0 0.0 0.00 0.00 0.00 35 1027.3
20211017090304 6 120 0.0 0.0 0.00 0.00 0.00 35 1027.3
20211017085804 6 120 0.0 0.0 0.00 0.00 0.00 35 1027.4
20211017085306 6 120 0.0 0.0 0.00 0.00 0.00 35 1027.3
20211017084804 6 120 1.6 3.2 0.00 0.00 0.00 34 1027.4
20211017084304 6 342 0.0 1.6 0.00 0.00 0.00 34 1027.4
20211017083804 6 342 1.6 4.8 0.00 0.00 0.00 34 1027.4
20211017083304 6 330 1.6 3.2 0.00 0.00 0.00 33 1027.3
20211017082804 6 264 0.0 3.2 0.00 0.00 0.00 34 1027.3
20211017082305 6 259 0.0 0.0 0.00 0.00 0.00 34 1027.4
20211017081804 6 259 0.0 0.0 0.00 0.00 0.00 34 1027.4
20211017081304 6 259 0.0 0.0 0.00 0.00 0.00 34 1027.5
20211017080804 6 259 0.0 0.0 0.00 0.00 0.00 34 1027.4
20211017080304 6 259 0.0 0.0 0.00 0.00 0.00 34 1027.4
20211017075804 6 259 0.0 0.0 0.00 0.00 0.00 34 1027.4
20211017075306 6 259 0.0 0.0 0.00 0.00 0.00 34 1027.4
20211017074804 6 259 0.0 0.0 0.00 0.00 0.00 34 1027.4
20211017074304 6 259 0.0 0.0 0.00 0.00 0.00 34 1027.4
20211017073804 7 259 0.0 0.0 0.00 0.00 0.00 33 1027.4
20211017073304 7 259 0.0 0.0 0.00 0.00 0.00 33 1027.4
20211017072804 7 259 0.0 0.0 0.00 0.00 0.00 33 1027.4
20211017072305 7 259 0.0 0.0 0.00 0.00 0.00 33 1027.3
20211017071804 7 259 0.0 0.0 0.00 0.00 0.00 33 1027.3
20211017071304 7 259 0.0 0.0 0.00 0.00 0.00 32 1027.3
20211017070804 7 258 0.0 0.0 0.00 0.00 0.00 32 1027.2
20211017070304 7 258 0.0 0.0 0.00 0.00 0.00 32 1027.3
20211017065803 7 258 0.0 0.0 0.00 0.00 0.00 32 1027.3
20211017065305 7 258 0.0 0.0 0.00 0.00 0.00 32 1027.3
20211017064805 7 258 0.0 0.0 0.00 0.00 0.00 32 1027.3
20211017064304 7 258 0.0 0.0 0.00 0.00 0.00 31 1027.3
20211017063804 7 258 0.0 0.0 0.00 0.00 0.00 31 1027.3
20211017063304 7 258 0.0 0.0 0.00 0.00 0.00 31 1027.4
20211017062804 7 258 0.0 0.0 0.00 0.00 0.00 30 1027.2
20211017062307 7 258 0.0 0.0 0.00 0.00 0.00 30 1027.3
20211017061804 7 258 0.0 3.2 0.00 0.00 0.00 30 1027.3
20211017061304 8 258 1.6 4.8 0.00 0.00 0.00 31 1027.4
20211017060817 8 262 1.6 4.8 0.00 0.00 0.00 31 1027.4
20211017060304 8 263 3.2 4.8 0.00 0.00 0.00 32 1027.5
20211017055804 8 263 1.6 3.2 0.00 0.00 0.00 31 1027.4
20211017055306 8 263 1.6 3.2 0.00 0.00 0.00 30 1027.4
20211017054804 8 263 1.6 3.2 0.00 0.00 0.00 30 1027.4
20211017054304 8 263 0.0 3.2 0.00 0.00 0.00 29 1027.4
20211017053803 8 263 0.0 1.6 0.00 0.00 0.00 28 1027.4
20211017053304 9 263 0.0 3.2 0.00 0.00 0.00 28 1027.4
20211017052804 9 263 0.0 1.6 0.00 0.00 0.00 28 1027.3
20211017052305 9 263 0.0 1.6 0.00 0.00 0.00 28 1027.2
20211017051803 9 263 1.6 4.8 0.00 0.00 0.00 28 1027.2
20211017051304 9 263 1.6 4.8 0.00 0.00 0.00 28 1027.1
20211017050805 9 263 3.2 4.8 0.00 0.00 0.00 27 1027.2
20211017050304 9 263 0.0 0.0 0.00 0.00 0.00 27 1027.1
20211017045804 10 263 0.0 1.6 0.00 0.00 0.00 27 1027.2
20211017045306 10 263 0.0 1.6 0.00 0.00 0.00 27 1027.1
20211017044804 10 263 0.0 0.0 0.00 0.00 0.00 27 1027.1
20211017044304 10 263 0.0 0.0 0.00 0.00 0.00 27 1027.2
20211017043803 10 263 0.0 0.0 0.00 0.00 0.00 27 1027.2
20211017043304 10 263 0.0 0.0 0.00 0.00 0.00 26 1027.2
20211017042804 10 263 0.0 1.6 0.00 0.00 0.00 26 1027.2
20211017042305 10 263 1.6 3.2 0.00 0.00 0.00 25 1027.2
20211017041803 10 263 1.6 4.8 0.00 0.00 0.00 26 1027.2
20211017041304 10 263 3.2 4.8 0.00 0.00 0.00 26 1027.2
20211017040804 10 263 1.6 3.2 0.00 0.00 0.00 26 1027.2
20211017040305 11 263 1.6 3.2 0.00 0.00 0.00 25 1027.2
20211017035804 11 263 0.0 1.6 0.00 0.00 0.00 25 1027.2
20211017035305 11 263 1.6 3.2 0.00 0.00 0.00 25 1027.2
20211017034804 11 263 0.0 1.6 0.00 0.00 0.00 25 1027.1
20211017034304 11 263 0.0 1.6 0.00 0.00 0.00 25 1027.1
20211017033804 11 263 0.0 0.0 0.00 0.00 0.00 25 1027.1
20211017033303 11 263 0.0 1.6 0.00 0.00 0.00 25 1027.0
20211017032804 11 263 1.6 3.2 0.00 0.00 0.00 24 1027.0
20211017032305 11 263 0.0 1.6 0.00 0.00 0.00 24 1027.0
20211017031804 12 263 1.6 3.2 0.00 0.00 0.00 24 1026.9
20211017031304 12 263 1.6 3.2 0.00 0.00 0.00 24 1026.8
20211017030804 12 263 1.6 3.2 0.00 0.00 0.00 23 1026.8
20211017030304 12 263 1.6 3.2 0.00 0.00 0.00 23 1026.8
20211017025803 12 263 1.6 3.2 0.00 0.00 0.00 23 1026.8
20211017025305 12 263 1.6 3.2 0.00 0.00 0.00 23 1026.7
20211017024804 12 263 0.0 3.2 0.00 0.00 0.00 23 1026.7
20211017024304 12 263 1.6 3.2 0.00 0.00 0.00 22 1026.7
20211017023804 13 263 1.6 3.2 0.00 0.00 0.00 22 1026.6
20211017023304 13 263 1.6 3.2 0.00 0.00 0.00 22 1026.7
20211017022804 13 263 0.0 3.2 0.00 0.00 0.00 22 1026.7
20211017022305 13 263 0.0 3.2 0.00 0.00 0.00 22 1026.5
20211017021804 13 263 0.0 3.2 0.00 0.00 0.00 21 1026.6
20211017021304 13 263 0.0 1.6 0.00 0.00 0.00 21 1026.6
20211017020803 13 263 0.0 3.2 0.00 0.00 0.00 21 1026.5
20211017020304 13 263 0.0 3.2 0.00 0.00 0.00 21 1026.5
20211017015804 14 263 1.6 3.2 0.00 0.00 0.00 21 1026.5
20211017015306 14 263 1.6 4.8 0.00 0.00 0.00 20 1026.5
20211017014804 14 263 1.6 3.2 0.00 0.00 0.00 20 1026.4
20211017014303 15 263 1.6 4.8 0.00 0.00 0.00 20 1026.3
20211017013804 15 263 1.6 4.8 0.00 0.00 0.00 20 1026.3
20211017013304 15 178 1.6 3.2 0.00 0.00 0.00 20 1026.2
20211017012803 15 178 0.0 1.6 0.00 0.00 0.00 20 1026.2
20211017012305 15 178 0.0 1.6 0.00 0.00 0.00 20 1026.2
20211017011804 16 174 0.0 0.0 0.00 0.00 0.00 20 1026.1
20211017011304 16 173 0.0 0.0 0.00 0.00 0.00 20 1026.0
20211017010803 16 174 0.0 1.6 0.00 0.00 0.00 20 1026.0
20211017010304 17 173 0.0 0.0 0.00 0.00 0.00 19 1026.0
20211017005804 17 173 0.0 0.0 0.00 0.00 0.00 19 1026.0
20211017005305 17 173 0.0 0.0 0.00 0.00 0.00 19 1025.9
20211017004804 17 173 0.0 0.0 0.00 0.00 0.00 18 1025.9
20211017004304 17 173 0.0 0.0 0.00 0.00 0.00 17 1025.8
20211017003804 17 173 0.0 0.0 0.00 0.00 0.00 17 1025.7
20211017003304 18 173 0.0 0.0 0.00 0.00 0.00 17 1025.7
20211017002804 18 173 0.0 0.0 0.00 0.00 0.00 17 1025.6
20211017002306 18 173 0.0 3.2 0.00 0.00 0.00 16 1025.6
20211017001804 18 173 1.6 4.8 0.00 0.00 0.00 16 1025.6
20211017001304 18 171 3.2 11.3 0.00 0.00 0.00 16 1025.6
20211017000804 18 203 3.2 12.9 0.00 0.00 0.00 15 1025.5
20211017000304 18 182 1.6 4.8 0.00 0.00 0.00 15 1025.6
20211016235804 18 210 3.2 8.0 0.00 0.00 0.00 16 1025.5
20211016235307 18 211 3.2 8.0 0.00 0.00 0.00 15 1025.5
20211016234804 18 218 1.6 4.8 0.00 0.00 0.00 15 1025.5
20211016234303 18 218 1.6 8.0 0.00 0.00 0.00 15 1025.6
20211016233804 19 168 3.2 9.7 0.00 0.00 0.00 15 1025.6
20211016233303 19 162 4.8 9.7 0.00 0.00 0.00 15 1025.6
20211016232803 19 161 8.0 12.9 0.00 0.00 0.00 15 1025.7
20211016232305 19 164 9.7 16.1 0.00 0.00 0.00 14 1025.7
20211016231803 19 163 1.6 12.9 0.00 0.00 0.00 14 1025.7
20211016231304 19 153 4.8 12.9 0.00 0.00 0.00 14 1025.7
20211016230804 20 205 4.8 14.5 0.00 0.00 0.00 14 1025.8
20211016230304 20 181 8.0 12.9 0.00 0.00 0.00 13 1025.7
20211016225804 20 177 4.8 9.7 0.00 0.00 0.00 14 1025.8
20211016225305 20 195 6.4 14.5 0.00 0.00 0.00 13 1025.8
20211016224804 20 144 9.7 19.3 0.00 0.00 0.00 13 1025.9
20211016224304 20 143 8.0 12.9 0.00 0.00 0.00 13 1025.9
20211016223804 20 158 8.0 19.3 0.00 0.00 0.00 13 1025.9
20211016223304 20 150 8.0 14.5 0.00 0.00 0.00 12 1026.1
20211016222805 20 191 6.4 11.3 0.00 0.00 0.00 12 1026.1
20211016222306 20 210 4.8 12.9 0.00 0.00 0.00 12 1026.2
20211016221804 20 167 4.8 11.3 0.00 0.00 0.00 11 1026.2
20211016221304 20 132 3.2 9.7 0.00 0.00 0.00 12 1026.4
20211016220804 20 179 4.8 12.9 0.00 0.00 0.00 12 1026.5
20211016220304 20 179 8.0 12.9 0.00 0.00 0.00 12 1026.7
20211016215804 20 147 4.8 16.1 0.00 0.00 0.00 12 1026.3
20211016215305 20 154 4.8 12.9 0.00 0.00 0.00 12 1026.3
20211016214804 20 195 3.2 11.3 0.00 0.00 0.00 12 1026.4
20211016214304 20 219 4.8 14.5 0.00 0.00 0.00 12 1026.4
20211016213804 20 153 8.0 14.5 0.00 0.00 0.00 12 1026.4
20211016213304 20 192 4.8 11.3 0.00 0.00 0.00 12 1026.4
20211016212804 20 162 4.8 12.9 0.00 0.00 0.00 12 1026.5
20211016212305 20 183 1.6 8.0 0.00 0.00 0.00 12 1026.6
20211016211804 20 169 4.8 12.9 0.00 0.00 0.00 12 1026.6
20211016211305 20 166 8.0 19.3 0.00 0.00 0.00 12 1026.7
20211016210804 20 180 4.8 12.9 0.00 0.00 0.00 13 1026.7
20211016210304 20 186 3.2 19.3 0.00 0.00 0.00 13 1026.7
20211016205804 20 174 3.2 16.1 0.00 0.00 0.00 12 1026.8
20211016205306 20 145 6.4 19.3 0.00 0.00 0.00 12 1026.8
20211016204803 20 205 3.2 16.1 0.00 0.00 0.00 12 1026.9
20211016204304 20 143 4.8 14.5 0.00 0.00 0.00 13 1026.9
20211016203804 20 188 3.2 8.0 0.00 0.00 0.00 13 1027.0
20211016203304 19 168 3.2 12.9 0.00 0.00 0.00 13 1027.1
20211016202804 19 195 6.4 19.3 0.00 0.00 0.00 13 1027.2
20211016202305 19 199 3.2 14.5 0.00 0.00 0.00 13 1027.2
20211016201804 20 191 4.8 19.3 0.00 0.00 0.00 13 1027.4
20211016201304 19 129 8.0 19.3 0.00 0.00 0.00 13 1027.4
20211016200805 19 163 8.0 20.9 0.00 0.00 0.00 13 1027.6
20211016200304 18 124 3.2 9.7 0.00 0.00 0.00 13 1027.6
20211016195804 19 206 9.7 14.5 0.00 0.00 0.00 13 1027.7
20211016195306 19 187 8.0 16.1 0.00 0.00 0.00 13 1027.8
20211016194804 18 159 3.2 19.3 0.00 0.00 0.00 14 1027.9
20211016194304 19 212 3.2 9.7 0.00 0.00 0.00 14 1028.0
20211016193804 19 203 6.4 12.9 0.00 0.00 0.00 13 1028.2
20211016193303 18 137 3.2 9.7 0.00 0.00 0.00 15 1028.2
20211016192803 18 179 4.8 8.0 0.00 0.00 0.00 14 1028.3
20211016192306 18 168 3.2 11.3 0.00 0.00 0.00 14 1028.4
20211016191804 18 150 3.2 8.0 0.00 0.00 0.00 14 1028.5
20211016191303 18 143 3.2 9.7 0.00 0.00 0.00 14 1028.7
20211016190804 18 129 0.0 4.8 0.00 0.00 0.00 15 1028.9
20211016190304 18 155 0.0 4.8 0.00 0.00 0.00 15 1028.9
20211016185804 17 149 1.6 4.8 0.00 0.00 0.00 15 1029.0
20211016185306 17 191 1.6 8.0 0.00 0.00 0.00 15 1029.1
20211016184804 17 181 3.2 4.8 0.00 0.00 0.00 17 1029.2
20211016184304 17 123 0.0 4.8 0.00 0.00 0.00 16 1029.3
20211016183804 17 124 1.6 11.3 0.00 0.00 0.00 16 1029.5
20211016183304 17 162 3.2 11.3 0.00 0.00 0.00 15 1029.5
20211016182804 17 143 0.0 3.2 0.00 0.00 0.00 16 1029.7
20211016182306 16 351 0.0 4.8 0.00 0.00 0.00 16 1029.8
20211016181804 16 63 1.6 4.8 0.00 0.00 0.00 16 1029.9
20211016181303 16 175 0.0 0.0 0.00 0.00 0.00 18 1030.1
20211016180804 16 176 0.0 3.2 0.00 0.00 0.00 17 1030.1
20211016180304 16 165 1.6 4.8 0.00 0.00 0.00 17 1030.2
20211016175803 15 160 1.6 8.0 0.00 0.00 0.00 18 1029.9
20211016175306 15 351 0.0 0.0 0.00 0.00 0.00 17 1030.0
20211016174804 15 22 1.6 4.8 0.00 0.00 0.00 17 1030.1
20211016174304 15 353 0.0 4.8 0.00 0.00 0.00 19 1030.2
20211016173804 15 44 0.0 0.0 0.00 0.00 0.00 19 1030.2
20211016173304 14 14 3.2 8.0 0.00 0.00 0.00 18 1030.2
20211016172804 14 26 3.2 9.7 0.00 0.00 0.00 19 1030.3
20211016172306 13 49 3.2 14.5 0.00 0.00 0.00 20 1030.3
20211016171804 13 47 6.4 11.3 0.00 0.00 0.00 20 1030.3
20211016171304 13 29 4.8 11.3 0.00 0.00 0.00 21 1030.4
20211016170804 13 26 4.8 11.3 0.00 0.00 0.00 21 1030.4
20211016170304 12 38 3.2 8.0 0.00 0.00 0.00 22 1030.5
20211016165804 12 52 4.8 11.3 0.00 0.00 0.00 23 1030.6
20211016165307 11 22 4.8 11.3 0.00 0.00 0.00 23 1030.6
20211016164804 11 32 8.0 12.9 0.00 0.00 0.00 24 1030.7